DLH1158 EDDF-LEPA

Flight info

Callsign DLH1158
Flight time 2h 2m
Altitude 35000
Route ANEKI2L/18 ANEKI Y163 HERBI Y164 MOPAN DCT LUTIX DCT BENOT DCT NEMOS DCT GEVEA DCT INCUS DCT BALSI DCT RETNO DCT TUPOX DCT MTG DCT DIVKO DCT VATIR DCT PIVUS N852 VERSO L129 LUNIK
Aircraft A320/M-SDE3FGHIRWY/LB1

Departure

Time 2026-05-04 16:52
Airport Frankfurt Main Airport (EDDF)

Arrival

Time 2026-05-04 18:54
Airport Palma de Mallorca Airport (LEPA)
Time Latitude Longitude Altitude Speed Heading
2026-05-04 16:12 50.04595 8.57052 360 ft 0 kts 59°
2026-05-04 16:41 50.04567 8.56958 357 ft 3 kts 102°
2026-05-04 16:42 50.04595 8.56907 356 ft 4 kts 193°
2026-05-04 16:43 50.04543 8.56887 357 ft 2 kts 194°
2026-05-04 16:43 50.04541 8.56886 356 ft 0 kts 194°
2026-05-04 16:44 50.04523 8.56879 357 ft 6 kts 194°
2026-05-04 16:45 50.04424 8.56706 359 ft 16 kts 248°
2026-05-04 16:46 50.04259 8.56001 357 ft 27 kts 249°
2026-05-04 16:46 50.04121 8.55447 360 ft 28 kts 248°
2026-05-04 16:47 50.04005 8.54977 360 ft 28 kts 250°
2026-05-04 16:47 50.03876 8.54421 362 ft 27 kts 250°
2026-05-04 16:48 50.03672 8.53681 357 ft 25 kts 250°
2026-05-04 16:48 50.03609 8.53420 355 ft 26 kts 249°
2026-05-04 16:49 50.03480 8.52884 357 ft 26 kts 250°
2026-05-04 16:49 50.03431 8.52710 363 ft 0 kts 252°
2026-05-04 16:50 50.03358 8.52590 358 ft 14 kts 178°
2026-05-04 16:50 50.03348 8.52591 358 ft 2 kts 178°
2026-05-04 16:51 50.03344 8.52591 358 ft 0 kts 181°
2026-05-04 16:51 50.03289 8.52591 356 ft 31 kts 178°
2026-05-04 16:51 50.01892 8.52594 355 ft 157 kts 180°
2026-05-04 16:52 49.99558 8.52604 1406 ft 165 kts 181°
2026-05-04 16:52 49.98366 8.52688 1852 ft 181 kts 180°
2026-05-04 16:53 49.95531 8.52904 2405 ft 228 kts 179°
2026-05-04 16:53 49.90597 8.53286 3974 ft 238 kts 179°
2026-05-04 16:54 49.88950 8.53410 4013 ft 236 kts 179°
2026-05-04 16:55 49.82431 8.53861 4018 ft 234 kts 178°
2026-05-04 16:55 49.79150 8.54089 4023 ft 235 kts 179°
2026-05-04 16:56 49.75740 8.53815 4024 ft 262 kts 186°
2026-05-04 16:56 49.70239 8.53092 4017 ft 265 kts 185°
2026-05-04 16:57 49.68395 8.52854 4104 ft 270 kts 187°
2026-05-04 16:57 49.64657 8.52363 6153 ft 264 kts 185°
2026-05-04 16:58 49.59152 8.51641 8760 ft 267 kts 187°
2026-05-04 16:58 49.57291 8.51395 9596 ft 270 kts 187°
2026-05-04 16:59 49.53402 8.50871 10498 ft 300 kts 187°
2026-05-04 17:00 49.44489 8.49701 12805 ft 332 kts 187°
2026-05-04 17:00 49.37418 8.48786 14752 ft 344 kts 187°
2026-05-04 17:01 49.32608 8.48160 15991 ft 350 kts 187°
2026-05-04 17:01 49.27713 8.47521 17189 ft 356 kts 187°
2026-05-04 17:02 49.22729 8.46878 18355 ft 362 kts 187°
2026-05-04 17:02 49.17663 8.46216 19375 ft 368 kts 187°
2026-05-04 17:03 49.15102 8.45884 19907 ft 371 kts 187°
2026-05-04 17:03 49.12523 8.45549 20435 ft 373 kts 187°
2026-05-04 17:03 49.07281 8.44865 21486 ft 378 kts 187°
2026-05-04 17:04 49.02113 8.43272 22506 ft 382 kts 194°
2026-05-04 17:04 48.96903 8.41452 23554 ft 385 kts 194°
2026-05-04 17:05 48.91654 8.39632 24390 ft 389 kts 194°
2026-05-04 17:05 48.86357 8.37787 25190 ft 392 kts 194°
2026-05-04 17:06 48.80987 8.35930 25954 ft 395 kts 194°
2026-05-04 17:06 48.78298 8.35005 26332 ft 397 kts 194°
2026-05-04 17:07 48.72918 8.33076 27126 ft 399 kts 195°
2026-05-04 17:07 48.71136 8.32417 27366 ft 400 kts 195°
2026-05-04 17:07 48.67506 8.31069 27841 ft 402 kts 195°
2026-05-04 17:07 48.64783 8.30062 28184 ft 404 kts 195°
2026-05-04 17:08 48.62051 8.29059 28510 ft 406 kts 195°
2026-05-04 17:08 48.56538 8.27054 29125 ft 409 kts 195°
2026-05-04 17:08 48.53763 8.26055 29436 ft 411 kts 194°
2026-05-04 17:09 48.50979 8.25055 29731 ft 412 kts 194°
2026-05-04 17:09 48.48183 8.24050 30011 ft 414 kts 195°
2026-05-04 17:09 48.45376 8.23031 30262 ft 415 kts 195°
2026-05-04 17:10 48.39741 8.20961 30719 ft 418 kts 195°
2026-05-04 17:10 48.31224 8.17842 31580 ft 416 kts 195°
2026-05-04 17:11 48.28417 8.16821 31905 ft 415 kts 195°
2026-05-04 17:11 48.25625 8.15769 32194 ft 413 kts 198°
2026-05-04 17:11 48.20393 8.12316 32768 ft 411 kts 207°
2026-05-04 17:12 48.18665 8.11034 32957 ft 410 kts 207°
2026-05-04 17:12 48.13563 8.07268 33549 ft 408 kts 207°
2026-05-04 17:13 48.05942 8.01635 34341 ft 407 kts 207°
2026-05-04 17:14 47.98318 7.96031 34944 ft 408 kts 207°
2026-05-04 17:14 47.95777 7.94172 34991 ft 405 kts 207°
2026-05-04 17:15 47.88195 7.88628 34999 ft 402 kts 207°
2026-05-04 17:16 47.78144 7.81287 35011 ft 402 kts 207°
2026-05-04 17:17 47.68084 7.74003 35014 ft 402 kts 207°
2026-05-04 17:18 47.58024 7.66724 35019 ft 402 kts 207°
2026-05-04 17:19 47.47911 7.59455 35014 ft 403 kts 207°
2026-05-04 17:20 47.37781 7.52207 35013 ft 403 kts 207°
2026-05-04 17:20 47.30208 7.46805 35039 ft 403 kts 207°
2026-05-04 17:21 47.20124 7.39631 35043 ft 402 kts 207°
2026-05-04 17:22 47.15532 7.34990 35039 ft 399 kts 225°
2026-05-04 17:23 47.08525 7.22346 35032 ft 399 kts 230°
2026-05-04 17:24 47.03317 7.12797 35031 ft 400 kts 230°
2026-05-04 17:25 46.96350 7.00038 35046 ft 399 kts 231°
2026-05-04 17:26 46.88967 6.87980 35071 ft 398 kts 219°
2026-05-04 17:27 46.78223 6.75195 35044 ft 397 kts 219°
2026-05-04 17:28 46.69646 6.65031 35039 ft 397 kts 220°
2026-05-04 17:29 46.56767 6.49848 35054 ft 397 kts 219°
2026-05-04 17:31 46.46014 6.37223 35067 ft 396 kts 219°
2026-05-04 17:32 46.35281 6.24712 35056 ft 396 kts 219°
2026-05-04 17:33 46.28980 6.17396 35051 ft 371 kts 219°
2026-05-04 17:33 46.26906 6.15232 35053 ft 367 kts 212°
2026-05-04 17:34 46.19623 6.11934 35051 ft 371 kts 192°
2026-05-04 17:34 46.17074 6.11373 35055 ft 371 kts 192°
2026-05-04 17:35 46.04323 6.08541 35056 ft 371 kts 192°
2026-05-04 17:36 45.99219 6.07413 35041 ft 371 kts 193°
2026-05-04 17:36 45.94121 6.06292 35023 ft 370 kts 193°
2026-05-04 17:37 45.88996 6.05157 35022 ft 370 kts 193°
2026-05-04 17:37 45.83910 6.04034 35022 ft 370 kts 193°
2026-05-04 17:38 45.78824 6.02904 35022 ft 370 kts 193°
2026-05-04 17:38 45.74600 6.01974 35030 ft 369 kts 193°
2026-05-04 17:39 45.66982 6.00297 35024 ft 369 kts 193°
2026-05-04 17:39 45.61913 5.99173 35024 ft 369 kts 193°
2026-05-04 17:40 45.56842 5.98067 35020 ft 369 kts 193°
2026-05-04 17:40 45.51766 5.96952 35024 ft 369 kts 193°
2026-05-04 17:41 45.46663 5.95817 35026 ft 368 kts 194°
2026-05-04 17:41 45.41657 5.94327 35024 ft 367 kts 197°
2026-05-04 17:42 45.36688 5.92680 35025 ft 367 kts 197°
2026-05-04 17:42 45.31711 5.91072 35031 ft 367 kts 197°
2026-05-04 17:43 45.26718 5.89509 35030 ft 367 kts 196°
2026-05-04 17:43 45.21720 5.87966 35025 ft 368 kts 196°
2026-05-04 17:44 45.16718 5.86420 35023 ft 368 kts 196°
2026-05-04 17:44 45.11683 5.84856 35026 ft 368 kts 196°
2026-05-04 17:45 45.06679 5.83306 35031 ft 368 kts 196°
2026-05-04 17:45 45.01671 5.81756 34998 ft 368 kts 196°
2026-05-04 17:46 44.96657 5.80213 35005 ft 369 kts 196°
2026-05-04 17:46 44.91631 5.78674 35010 ft 370 kts 196°
2026-05-04 17:47 44.86607 5.77130 35014 ft 370 kts 196°
2026-05-04 17:47 44.81582 5.75590 35009 ft 370 kts 196°
2026-05-04 17:48 44.76549 5.74048 35018 ft 370 kts 196°
2026-05-04 17:48 44.71508 5.72514 35018 ft 371 kts 196°
2026-05-04 17:49 44.66467 5.70980 35048 ft 371 kts 195°
2026-05-04 17:49 44.61388 5.69432 35056 ft 371 kts 195°
2026-05-04 17:50 44.56353 5.67900 35051 ft 371 kts 195°
2026-05-04 17:50 44.51317 5.66372 35054 ft 370 kts 195°
2026-05-04 17:51 44.46280 5.64847 35051 ft 370 kts 196°
2026-05-04 17:51 44.41252 5.63332 35039 ft 370 kts 196°
2026-05-04 17:52 44.36314 5.61434 35043 ft 366 kts 204°
2026-05-04 17:52 44.31577 5.58819 35040 ft 366 kts 204°
2026-05-04 17:53 44.26831 5.56220 35031 ft 366 kts 204°
2026-05-04 17:53 44.22088 5.53637 35038 ft 366 kts 204°
2026-05-04 17:54 44.17350 5.51055 35038 ft 365 kts 204°
2026-05-04 17:54 44.12611 5.48472 35045 ft 366 kts 204°
2026-05-04 17:55 44.07872 5.45892 35025 ft 366 kts 205°
2026-05-04 17:55 44.03107 5.43302 35026 ft 365 kts 204°
2026-05-04 17:56 43.98368 5.40734 35030 ft 365 kts 204°
2026-05-04 17:56 43.93631 5.38168 35027 ft 365 kts 204°
2026-05-04 17:57 43.88898 5.35613 35013 ft 365 kts 205°
2026-05-04 17:57 43.84169 5.33061 35035 ft 364 kts 204°
2026-05-04 17:58 43.79453 5.30515 35022 ft 364 kts 204°
2026-05-04 17:58 43.74736 5.27979 35010 ft 363 kts 204°
2026-05-04 17:59 43.69991 5.25431 34983 ft 363 kts 205°
2026-05-04 18:00 43.62944 5.21656 34981 ft 361 kts 204°
2026-05-04 18:00 43.58261 5.19148 34991 ft 361 kts 205°
2026-05-04 18:01 43.53582 5.16645 34987 ft 360 kts 205°
2026-05-04 18:01 43.48914 5.14148 34978 ft 360 kts 205°
2026-05-04 18:02 43.41917 5.10436 34981 ft 359 kts 205°
2026-05-04 18:02 43.37425 5.07545 34981 ft 354 kts 217°
2026-05-04 18:03 43.33380 5.03705 34983 ft 354 kts 217°
2026-05-04 18:03 43.29320 4.99892 34970 ft 353 kts 217°
2026-05-04 18:04 43.25269 4.96092 34979 ft 353 kts 217°
2026-05-04 18:05 43.19163 4.90361 34995 ft 353 kts 216°
2026-05-04 18:05 43.15112 4.86561 34982 ft 353 kts 216°
2026-05-04 18:06 43.09021 4.80873 34963 ft 353 kts 216°
2026-05-04 18:06 43.04923 4.77164 34965 ft 354 kts 211°
2026-05-04 18:07 43.00620 4.73896 34964 ft 354 kts 212°
2026-05-04 18:07 42.96313 4.70632 34952 ft 354 kts 212°
2026-05-04 18:08 42.92001 4.67363 34946 ft 354 kts 212°
2026-05-04 18:08 42.88424 4.64658 34948 ft 354 kts 212°
2026-05-04 18:09 42.79818 4.58164 34952 ft 353 kts 212°
2026-05-04 18:10 42.75483 4.54902 34956 ft 354 kts 211°
2026-05-04 18:10 42.71164 4.51660 34949 ft 355 kts 211°
2026-05-04 18:11 42.66841 4.48421 34947 ft 355 kts 211°
2026-05-04 18:11 42.62511 4.45182 34943 ft 355 kts 211°
2026-05-04 18:12 42.58179 4.41937 34934 ft 356 kts 211°
2026-05-04 18:12 42.53849 4.38697 34934 ft 356 kts 211°
2026-05-04 18:13 42.49510 4.35469 34919 ft 356 kts 211°
2026-05-04 18:14 42.43006 4.30633 34928 ft 355 kts 211°
2026-05-04 18:14 42.38675 4.27415 34930 ft 355 kts 211°
2026-05-04 18:15 42.29978 4.20968 34915 ft 355 kts 211°
2026-05-04 18:16 42.25649 4.17771 34940 ft 355 kts 212°
2026-05-04 18:16 42.21326 4.14569 34939 ft 355 kts 212°
2026-05-04 18:17 42.14828 4.09798 34932 ft 355 kts 211°
2026-05-04 18:18 42.08327 4.05034 34920 ft 354 kts 212°
2026-05-04 18:18 42.04003 4.01856 34922 ft 354 kts 212°
2026-05-04 18:19 41.97506 3.97099 34925 ft 354 kts 212°
2026-05-04 18:19 41.93139 3.94030 34923 ft 356 kts 206°
2026-05-04 18:20 41.88283 3.92410 34909 ft 362 kts 195°
2026-05-04 18:20 41.83278 3.91260 34915 ft 362 kts 195°
2026-05-04 18:21 41.78314 3.90111 34918 ft 362 kts 195°
2026-05-04 18:21 41.73345 3.88966 34920 ft 362 kts 195°
2026-05-04 18:22 41.68376 3.87826 34910 ft 362 kts 195°
2026-05-04 18:22 41.63408 3.86682 34915 ft 362 kts 195°
2026-05-04 18:23 41.58439 3.85541 34920 ft 362 kts 195°
2026-05-04 18:23 41.53471 3.84400 34927 ft 364 kts 195°
2026-05-04 18:24 41.50950 3.83820 34255 ft 374 kts 195°
2026-05-04 18:24 41.48333 3.83211 33012 ft 388 kts 195°
2026-05-04 18:24 41.45635 3.82585 31946 ft 396 kts 195°
2026-05-04 18:24 41.42917 3.81962 31192 ft 397 kts 194°
2026-05-04 18:25 41.40199 3.81344 30559 ft 395 kts 194°
2026-05-04 18:25 41.37464 3.80725 29950 ft 392 kts 194°
2026-05-04 18:25 41.34782 3.80119 29268 ft 390 kts 194°
2026-05-04 18:25 41.32114 3.79518 28614 ft 387 kts 194°
2026-05-04 18:26 41.29466 3.78921 28001 ft 384 kts 194°
2026-05-04 18:26 41.26841 3.78327 27411 ft 381 kts 194°
2026-05-04 18:26 41.24243 3.77733 26848 ft 378 kts 194°
2026-05-04 18:26 41.21662 3.77140 26281 ft 375 kts 195°
2026-05-04 18:27 41.19103 3.76554 25731 ft 372 kts 194°
2026-05-04 18:27 41.16558 3.75975 25190 ft 369 kts 195°
2026-05-04 18:27 41.14111 3.75084 24673 ft 361 kts 205°
2026-05-04 18:27 41.11781 3.73874 24159 ft 359 kts 205°
2026-05-04 18:28 41.09458 3.72671 23657 ft 357 kts 205°
2026-05-04 18:28 41.07149 3.71481 23091 ft 355 kts 205°
2026-05-04 18:28 41.04852 3.70300 22551 ft 353 kts 205°
2026-05-04 18:28 41.02567 3.69127 22018 ft 351 kts 205°
2026-05-04 18:29 41.00302 3.67963 21497 ft 349 kts 205°
2026-05-04 18:29 40.98038 3.66800 20983 ft 347 kts 205°
2026-05-04 18:29 40.95790 3.65647 20475 ft 346 kts 205°
2026-05-04 18:29 40.93550 3.64500 19971 ft 344 kts 205°
2026-05-04 18:30 40.89102 3.62216 18999 ft 342 kts 204°
2026-05-04 18:30 40.86888 3.61080 18535 ft 340 kts 204°
2026-05-04 18:30 40.84683 3.59950 17953 ft 341 kts 204°
2026-05-04 18:31 40.82485 3.58825 17669 ft 334 kts 204°
2026-05-04 18:31 40.80359 3.57736 17533 ft 322 kts 204°
2026-05-04 18:31 40.78297 3.56686 17287 ft 314 kts 204°
2026-05-04 18:31 40.76267 3.55651 16920 ft 311 kts 204°
2026-05-04 18:32 40.74258 3.54625 16533 ft 309 kts 204°
2026-05-04 18:32 40.72258 3.53605 16142 ft 307 kts 204°
2026-05-04 18:32 40.70272 3.52592 15770 ft 305 kts 204°
2026-05-04 18:32 40.68300 3.51587 15407 ft 303 kts 204°
2026-05-04 18:33 40.66337 3.50586 15039 ft 301 kts 204°
2026-05-04 18:33 40.64363 3.49582 14677 ft 299 kts 204°
2026-05-04 18:33 40.62425 3.48598 14326 ft 298 kts 203°
2026-05-04 18:33 40.60496 3.47619 13978 ft 296 kts 203°
2026-05-04 18:34 40.58583 3.46647 13624 ft 294 kts 203°
2026-05-04 18:34 40.56680 3.45681 13235 ft 292 kts 203°
2026-05-04 18:34 40.54786 3.44726 12847 ft 291 kts 203°
2026-05-04 18:34 40.52897 3.43775 12452 ft 289 kts 203°
2026-05-04 18:35 40.51026 3.42832 12067 ft 288 kts 203°
2026-05-04 18:35 40.49162 3.41889 11683 ft 286 kts 204°
2026-05-04 18:35 40.47307 3.40948 11292 ft 285 kts 204°
2026-05-04 18:35 40.45457 3.40038 10926 ft 284 kts 200°
2026-05-04 18:36 40.43527 3.39479 10555 ft 285 kts 190°
2026-05-04 18:36 40.41539 3.39379 10166 ft 287 kts 182°
2026-05-04 18:36 40.39553 3.39501 9943 ft 284 kts 182°
2026-05-04 18:36 40.37616 3.39619 9935 ft 277 kts 182°
2026-05-04 18:37 40.35693 3.39732 9936 ft 276 kts 182°
2026-05-04 18:37 40.33777 3.39839 9936 ft 275 kts 184°
2026-05-04 18:37 40.31893 3.39485 9939 ft 269 kts 200°
2026-05-04 18:37 40.30113 3.38725 9937 ft 269 kts 202°
2026-05-04 18:38 40.28354 3.37903 9940 ft 268 kts 204°
2026-05-04 18:38 40.26610 3.37029 9939 ft 268 kts 204°
2026-05-04 18:38 40.24873 3.36137 9942 ft 268 kts 205°
2026-05-04 18:38 40.23137 3.35238 9939 ft 268 kts 205°
2026-05-04 18:39 40.21989 3.34641 9939 ft 268 kts 205°
2026-05-04 18:39 40.20257 3.33744 9927 ft 268 kts 205°
2026-05-04 18:39 40.18524 3.32852 9936 ft 267 kts 205°
2026-05-04 18:39 40.16765 3.31952 9942 ft 268 kts 205°
2026-05-04 18:40 40.15030 3.31067 9942 ft 268 kts 205°
2026-05-04 18:40 40.13295 3.30188 9942 ft 268 kts 204°
2026-05-04 18:40 40.11557 3.29308 9942 ft 268 kts 204°
2026-05-04 18:40 40.09821 3.28430 9942 ft 267 kts 204°
2026-05-04 18:41 40.08090 3.27551 9942 ft 267 kts 205°
2026-05-04 18:41 40.06354 3.26670 9943 ft 268 kts 205°
2026-05-04 18:41 40.04618 3.25788 9942 ft 268 kts 204°
2026-05-04 18:41 40.02883 3.24909 9942 ft 268 kts 204°
2026-05-04 18:42 40.01148 3.24029 9944 ft 267 kts 205°
2026-05-04 18:42 39.99414 3.23149 9945 ft 267 kts 205°
2026-05-04 18:42 39.97680 3.22270 9940 ft 268 kts 205°
2026-05-04 18:42 39.95947 3.21395 9852 ft 266 kts 205°
2026-05-04 18:43 39.94216 3.20519 9725 ft 267 kts 205°
2026-05-04 18:43 39.92491 3.19644 9589 ft 266 kts 205°
2026-05-04 18:43 39.90770 3.18773 9463 ft 265 kts 205°
2026-05-04 18:43 39.89048 3.17905 9338 ft 265 kts 205°
2026-05-04 18:44 39.87330 3.17039 9210 ft 265 kts 205°
2026-05-04 18:44 39.86166 3.16455 9055 ft 266 kts 205°
2026-05-04 18:44 39.83879 3.15308 8400 ft 268 kts 204°
2026-05-04 18:44 39.82171 3.14452 8084 ft 264 kts 205°
2026-05-04 18:45 39.80464 3.13593 7671 ft 263 kts 204°
2026-05-04 18:45 39.78762 3.12734 7264 ft 262 kts 204°
2026-05-04 18:45 39.77071 3.11881 6886 ft 260 kts 205°
2026-05-04 18:45 39.75392 3.11035 6515 ft 257 kts 204°
2026-05-04 18:46 39.73739 3.10205 6123 ft 253 kts 204°
2026-05-04 18:46 39.72137 3.09344 5611 ft 241 kts 212°
2026-05-04 18:46 39.70852 3.08152 5487 ft 215 kts 226°
2026-05-04 18:46 39.69944 3.06719 5295 ft 197 kts 235°
2026-05-04 18:47 39.69225 3.05266 5084 ft 185 kts 237°
2026-05-04 18:47 39.68554 3.03844 4851 ft 181 kts 238°
2026-05-04 18:47 39.67921 3.02496 4621 ft 172 kts 239°
2026-05-04 18:47 39.67314 3.01201 4418 ft 161 kts 238°
2026-05-04 18:48 39.66740 2.99977 4189 ft 158 kts 238°
2026-05-04 18:48 39.66172 2.98764 3967 ft 156 kts 238°
2026-05-04 18:48 39.65625 2.97597 3789 ft 147 kts 238°
2026-05-04 18:48 39.65107 2.96493 3580 ft 135 kts 238°
2026-05-04 18:49 39.64638 2.95494 3414 ft 127 kts 238°
2026-05-04 18:49 39.64180 2.94520 3249 ft 126 kts 238°
2026-05-04 18:49 39.63730 2.93562 3087 ft 123 kts 239°
2026-05-04 18:49 39.63286 2.92616 2925 ft 122 kts 238°
2026-05-04 18:50 39.62846 2.91679 2761 ft 121 kts 238°
2026-05-04 18:50 39.62407 2.90744 2602 ft 122 kts 237°
2026-05-04 18:50 39.61965 2.89805 2444 ft 122 kts 238°
2026-05-04 18:50 39.61520 2.88859 2279 ft 123 kts 238°
2026-05-04 18:51 39.61075 2.87913 2118 ft 123 kts 237°
2026-05-04 18:51 39.60628 2.86962 1948 ft 124 kts 237°
2026-05-04 18:51 39.60178 2.86007 1790 ft 124 kts 237°
2026-05-04 18:51 39.59732 2.85059 1629 ft 121 kts 236°
2026-05-04 18:52 39.59297 2.84136 1454 ft 119 kts 236°
2026-05-04 18:52 39.58854 2.83195 1291 ft 125 kts 237°
2026-05-04 18:52 39.58404 2.82240 1126 ft 122 kts 235°
2026-05-04 18:52 39.57954 2.81286 961 ft 125 kts 237°
2026-05-04 18:53 39.57502 2.80327 799 ft 124 kts 237°
2026-05-04 18:53 39.57045 2.79358 632 ft 125 kts 237°
2026-05-04 18:53 39.56585 2.78384 439 ft 126 kts 237°
2026-05-04 18:53 39.56110 2.77377 287 ft 135 kts 238°
2026-05-04 18:54 39.55628 2.76356 103 ft 133 kts 237°
2026-05-04 18:54 39.55172 2.75392 40 ft 112 kts 238°
2026-05-04 18:54 39.54898 2.74811 38 ft 49 kts 239°
2026-05-04 18:54 39.54808 2.74444 38 ft 39 kts 263°
2026-05-04 18:55 39.54798 2.74177 38 ft 25 kts 252°
2026-05-04 18:55 39.54645 2.73814 38 ft 22 kts 242°
2026-05-04 18:55 39.54599 2.73663 37 ft 17 kts 298°
2026-05-04 18:56 39.54667 2.73616 38 ft 10 kts 354°
2026-05-04 18:56 39.54703 2.73640 38 ft 2 kts 54°
2026-05-04 18:56 39.54710 2.73654 38 ft 1 kts 55°
2026-05-04 18:56 39.54713 2.73659 38 ft 0 kts 56°